Navstar 2

operational
NORAD ID: 10893 Int'l Des: 1978-047 Owner: SAMSO Country: US Constellation: GPS
MEO

About Navstar 2

Description loading...

Live Position

Loading 3D Globe...

Upcoming Passes

Altitude History

Altitude vs Time

uPlot chart will show altitude changes over time

Two-Line Element Set

1 10893U 78047A 25305.03894207 .00000009 00000-0 00000-0 0 9994
2 10893 62.8234 279.7698 0537416 42.3471 324.0761 2.01626611349131
Epoch: Nov 1, 2025 • Age: 50 hours

Current Status

Altitude 19131.9 km
Velocity 4.03 km/s
Sub-Earth Point 62.79°N, 77.23°W
Launch Date May 13, 1978
Age 47.4 years
Type navigation

Technical Details

Classification Payload
Mass 409.00 kg
Dry Mass 409.00 kg
Total Mass 775.00 kg
Length 2.40 m
Diameter 2.60 m
Span 5.30 m
Shape Box + 2 Pan
Manufacturer RWISB
Bus Type GPS
Phase Status In Orbit
Owner/State SAMSO/US

Large Constellations

Loading constellations...